Meath Environmental Platform

Observations for Trim Market St

Time AQI Temp °C Hum % Pres Pa CO μg/m³ H₂S μg/m³ NO μg/m³ NO₂ μg/m³ O₃ μg/m³ SO₂ μg/m³ PM1 μg/m³ PM2.5 μg/m³ PM10 μg/m³
Tuesday 18 August 2026
00:41 2 19.8 80 2,147,483,647 0.03 0 2.03 0.11 48.05 0 2.14 3.55 6.39
00:40 2 19.9 80 2,147,483,647 0.03 0 2.05 0 51.31 0 1.43 4.01 6.96
00:39 2 19.9 80 2,147,483,647 0.04 0 2.04 0 54.38 0 1.43 3.07 6.39
00:34 2 19.9 80 2,147,483,647 0.03 0 1.87 0 46.11 0 2.14 4.48 8.1
00:33 2 19.8 80 2,147,483,647 0.02 0 1.9 0 57.39 0 2.14 3.54 6.96
00:31 2 19.9 80 2,147,483,647 0.02 0 2.07 0 51.5 0 2.14 3.06 6.4
00:29 2 19.9 80 2,147,483,647 0.01 0 2.07 0 54.11 0 1.43 3.53 7.53
00:21 2 19.9 80 2,147,483,647 0.02 0 2.09 0 49.01 0 2.14 3.04 5.83
00:20 2 19.9 80 2,147,483,647 0.01 0 2.09 0 44.38 0 1.43 3.52 6.97
00:19 2 19.8 80 2,147,483,647 0.01 0 2.08 0 53.38 0 2.14 3.99 7.53
00:18 2 19.9 80 2,147,483,647 0 0 2.11 0 48.83 0 0.71 3.04 5.83
00:17 2 19.9 80 2,147,483,647 0 0 2.1 0 50.74 0 2.14 4.45 8.1
00:16 2 19.9 80 2,147,483,647 0.01 0 2.11 0 49.42 0 1.43 3.51 6.4
00:15 2 19.9 80 2,147,483,647 0.01 0 2.11 0 45.86 0 2.14 4.92 8.1
00:12 2 19.9 80 2,147,483,647 0.01 0 2.12 0 51.67 0 1.43 3.5 6.4
00:11 2 19.9 80 2,147,483,647 0.01 0 2.13 0 46.24 0 1.43 3.03 5.84
00:09 2 19.9 81 2,147,483,647 0.02 0 2.12 0 45.49 0 1.43 3.03 5.84
00:04 2 19.9 81 2,147,483,647 0.02 0 2.14 0 48.89 0 1.43 3.01 5.85
00:01 2 19.9 81 2,147,483,647 0.04 0 2.16 0 48.42 0 1.43 3.48 6.41
00:00 2 20 81 2,147,483,647 0.02 0 2.2 0 46.6 0 0.71 2.06 4.73